Regional Weather Roundup
Issued by NWS

Home | Current Version | Previous Version | Text Only | Print | Product List | Glossary On
Versions: 1 2 3 4 5 6 7 8 9 10 11 12 13 14 15 16 17 18 19 20 21 22 23 24 25 26 27 28 29 30 31 32 33 34 35 36 37 38 39 40 41 42 43 44 45 46 47 48 49 50
000
ASUS43 KTOP 221408
RWRKS

WEATHER ROUNDUP FOR KANSAS
NATIONAL WEATHER SERVICE GOODLAND KS
800 AM CST WED FEB 22 2017

NOTE:  "FAIR" INDICATES FEW OR NO CLOUDS BELOW 12,000 FEET WITH NO
SIGNIFICANT WEATHER AND/OR OBSTRUCTIONS TO VISIBILITY.

KSZ001>006-013>018-027>032-041>047-221500-
NORTHWEST KANSAS

CITY           SKY/WX    TMP DP  RH WIND       PRES   REMARKS
GOODLAND       CLEAR     36  22  56 NW13      29.85S WCI  27
HAYS             N/A     41  28  60 SW6       29.79R
HILL CITY      FAIR      46  27  47 SW3       29.77R
RUSSELL        FAIR      45  29  53 W9        29.75S
$$

KSZ061>065-074>080-084>089-221500-
SOUTHWEST KANSAS

CITY           SKY/WX    TMP DP  RH WIND       PRES   REMARKS
DODGE CITY     FAIR      43  25  49 SW10      29.82S
ELKHART          N/A     46  16  30 W10         N/A
GARDEN CITY    FAIR      54  24  31 W14       29.80R
GREAT BEND     FAIR      45  30  55 SW14      29.77F
LIBERAL        FAIR      34  19  55 SW7       29.84F
PRATT          FAIR      44  30  59 W9        29.80R
$$

KSZ066>073-081>083-090>101-221500-
SOUTHEAST KANSAS

CITY           SKY/WX    TMP DP  RH WIND       PRES   REMARKS
CHANUTE        FAIR      47  42  83 S8        29.84S
COFFEYVILLE    FAIR      46  46 100 CALM      29.86S FOG
HUTCHINSON     FAIR      50  39  66 S9        29.78S
MEDICINE LODGE   N/A     44  35  70 SE6       29.80F
NEWTON         FAIR      51  36  56 S15       29.80S
PARSONS        FAIR      45  44  97 S3        29.86S
WICHITA INTL   FAIR      45  38  76 S10       29.82R
WICHITA JABRA  FAIR      51  36  56 S12       29.81R
WICHITA MCCONL FAIR      46  38  71 SW9       29.82R
WINFIELD       FAIR      46  39  76 S6        29.84S
$$

KSZ007>012-019>026-033>040-048>060-102>105-221500-
NORTHEAST KANSAS

CITY           SKY/WX    TMP DP  RH WIND       PRES   REMARKS
CONCORDIA      FAIR      53  33  46 SW15      29.70R
EMPORIA        FAIR      50  37  61 S14       29.77F
LAWRENCE       FAIR      45  38  76 SE5       29.78S
MANHATTAN      FAIR      55  33  43 SW14      29.72F
MARYSVILLE     FAIR      52  32  46 SW15      29.68F
OLATHE IND     FAIR      45  40  82 S7        29.80S
OLATHE EXE     FAIR      48  42  80 S8        29.79F
SALINA         FAIR      54  36  50 SW12      29.75S
TOPEKA BILLARD FAIR      52  36  54 S7        29.75F
TOPEKA FORBES  FAIR      49  36  61 SW13      29.75F
$$



USA.gov is the U.S. government's official web portal to all federal, state and local government web resources and services.